datetime,pool elevation
1953-10-01,8128.99
1953-10-02,8128.98
1953-10-03,8128.98
1953-10-04,8128.97
1953-10-05,8128.98
1953-10-06,8128.99
1953-10-07,8129.0
1953-10-08,8129.01
1953-10-09,8128.99
1953-10-10,8129.0
1953-10-11,8129.0
1953-10-12,8129.0
1953-10-13,8129.01
1953-10-14,8129.03
1953-10-15,8129.05
1953-10-16,8129.09
1953-10-17,8129.11
1953-10-18,8129.12
1953-10-19,8129.13
1953-10-20,8129.15
1953-10-21,8129.27
1953-10-22,8129.19
1953-10-23,8129.21
1953-10-24,8129.23
1953-10-25,8129.25
1953-10-26,8129.26
1953-10-27,8129.25
1953-10-28,8129.26
1953-10-29,8129.26
1953-10-30,8129.26
1953-10-31,8129.25
1953-11-01,8129.24
1953-11-02,8129.23
1953-11-03,8129.22
1953-11-04,8129.23
1953-11-05,8129.24
1953-11-06,8129.25
1953-11-07,8129.22
1953-11-08,8129.19
1953-11-09,8129.15
1953-11-10,8129.12
1953-11-11,8129.09
1953-11-12,8129.06
1953-11-13,8129.05
1953-11-14,8129.03
1953-11-15,8129.01
1953-11-16,8129.0
1953-11-17,8129.01
1953-11-18,8129.02
1953-11-19,8129.1
1953-11-20,8129.11
1953-11-21,8129.12
1953-11-22,8129.12
1953-11-23,8129.13
1953-11-24,8129.14
1953-11-25,8129.07
1953-11-26,8129.07
1953-11-27,8129.07
1953-11-28,8129.07
1953-11-29,8129.07
1953-11-30,8129.08
1953-12-01,8129.09
1953-12-02,8129.11
1953-12-03,8129.14
1953-12-04,8129.11
1953-12-05,8129.08
1953-12-06,8129.06
1953-12-07,8129.04
1953-12-08,8128.97
1953-12-09,8128.84
1953-12-10,8128.43
1953-12-11,8127.21
1953-12-12,8125.68
1953-12-13,8123.42
1953-12-14,8121.59
1953-12-15,8119.14
1953-12-16,8116.8
1953-12-17,8115.38
1953-12-18,8115.26
1953-12-19,8115.18
1953-12-20,8115.1
1953-12-21,8115.02
1953-12-22,8114.87
1953-12-23,8114.9
1953-12-24,8114.93
1953-12-25,8114.96
1953-12-26,8114.98
1953-12-27,8115.0
1953-12-28,8115.03
1953-12-29,8115.07
1953-12-30,8115.1
1953-12-31,8115.14
1954-01-01,8115.17
1954-01-02,8115.2
1954-01-03,8115.23
1954-01-04,8115.27
1954-01-05,8115.31
1954-01-06,8115.34
1954-01-07,8115.39
1954-01-08,8115.44
1954-01-09,8115.48
1954-01-10,8115.52
1954-01-11,8115.56
1954-01-12,8115.59
1954-01-13,8115.62
1954-01-14,8115.65
1954-01-15,8115.72
1954-01-16,8115.74
1954-01-17,8115.76
1954-01-18,8115.79
1954-01-19,8115.85
1954-01-20,8115.97
1954-01-21,8115.97
1954-01-22,8115.97
1954-01-23,8115.98
1954-01-24,8115.99
1954-01-25,8116.1
1954-01-26,8116.16
1954-01-27,8116.19
1954-01-28,8116.22
1954-01-29,8116.29
1954-01-30,8116.32
1954-01-31,8116.36
1954-02-01,8116.39
1954-02-02,8116.42
1954-02-03,8116.45
1954-02-04,8116.48
1954-02-05,8116.52
1954-02-06,8116.56
1954-02-07,8116.59
1954-02-08,8116.62
1954-02-09,8116.65
1954-02-10,8116.7
1954-02-11,8116.72
1954-02-12,8116.75
1954-02-13,8116.79
1954-02-14,8116.83
1954-02-15,8116.87
1954-02-16,8116.9
1954-02-17,8116.93
1954-02-18,8116.98
1954-02-19,8117.01
1954-02-20,8117.04
1954-02-21,8117.07
1954-02-22,8117.1
1954-02-23,8117.14
1954-02-24,8117.18
1954-02-25,8117.23
1954-02-26,8117.27
1954-02-27,8117.31
1954-02-28,8117.34
1954-03-01,8117.38
1954-03-02,8117.43
1954-03-03,8117.46
1954-03-04,8117.49
1954-03-05,8117.52
1954-03-06,8117.55
1954-03-07,8117.58
1954-03-08,8117.6
1954-03-09,8117.64
1954-03-10,8117.69
1954-03-11,8117.74
1954-03-12,8117.79
1954-03-13,8117.8
1954-03-14,8117.81
1954-03-15,8117.82
1954-03-16,8117.9
1954-03-17,8117.95
1954-03-18,8118.0
1954-03-19,8118.06
1954-03-20,8118.13
1954-03-21,8118.2
1954-03-22,8118.26
1954-03-23,8118.31
1954-03-24,8118.18
1954-03-25,8117.84
1954-03-26,8117.25
1954-03-27,8117.3
1954-03-28,8117.35
1954-03-29,8117.4
1954-03-30,8116.28
1954-03-31,8115.53
1954-04-01,8115.58
1954-04-02,8115.63
1954-04-03,8115.61
1954-04-04,8115.59
1954-04-05,8115.57
1954-04-06,8115.68
1954-04-07,8116.05
1954-04-08,8116.31
1954-04-09,8116.66
1954-04-10,8117.16
1954-04-11,8117.46
1954-04-12,8117.76
1954-04-13,8117.79
1954-04-14,8117.82
1954-04-15,8117.7
1954-04-16,8117.3
1954-04-17,8117.9
1954-04-18,8118.5
1954-04-19,8118.34
1954-04-20,8118.24
1954-04-21,8118.06
1954-04-22,8117.86
1954-04-23,8117.78
1954-04-24,8117.7
1954-04-25,8117.97
1954-04-26,8118.16
1954-04-27,8118.0
1954-04-28,8119.15
1954-04-29,8117.82
1954-04-30,8116.92
1954-05-01,8117.69
1954-05-02,8117.92
1954-05-03,8118.0
1954-05-04,8117.82
1954-05-05,8117.74
1954-05-06,8117.8
1954-05-07,8117.9
1954-05-08,8119.24
1954-05-09,8119.4
1954-05-10,8119.8
1954-05-11,8120.5
1954-05-12,8121.5
1954-05-13,8121.25
1954-05-14,8121.0
1954-05-15,8121.0
1954-05-16,8120.0
1954-05-17,8118.6
1954-05-18,8118.2
1954-05-19,8119.5
1954-05-20,8120.0
1954-05-21,8120.4
1954-05-22,8121.0
1954-05-23,8121.7
1954-05-24,8121.5
1954-05-25,8121.7
1954-05-26,8120.3
1954-05-27,8120.2
1954-05-28,8119.8
1954-05-29,8119.3
1954-05-30,8119.0
1954-05-31,8118.7
1954-06-01,8118.6
1954-06-02,8118.0
1954-06-03,8117.8
1954-06-04,8117.7
1954-06-05,8117.9
1954-06-06,8117.7
1954-06-07,8118.1
1954-06-08,8117.7
1954-06-09,8117.2
1954-06-10,8117.74
1954-06-11,8117.76
1954-06-12,8117.78
1954-06-13,8117.8
1954-06-14,8117.83
1954-06-15,8118.0
1954-06-16,8118.05
1954-06-17,8117.78
1954-06-18,8117.78
1954-06-19,8117.76
1954-06-20,8117.74
1954-06-21,8117.72
1954-06-22,8117.79
1954-06-23,8117.79
1954-06-24,8117.79
1954-06-25,8118.0
1954-06-26,8118.3
1954-06-27,8118.4
1954-06-28,8118.4
1954-06-29,8118.4
1954-06-30,8118.4
1954-07-01,8118.3
1954-07-02,8118.3
1954-07-03,8118.3
1954-07-04,8118.3
1954-07-05,8118.27
1954-07-06,8118.24
1954-07-07,8118.19
1954-07-08,8118.17
1954-07-09,8118.17
1954-07-10,8118.15
1954-07-11,8118.13
1954-07-12,8118.1
1954-07-13,8118.1
1954-07-14,8118.1
1954-07-15,8118.15
1954-07-16,8118.21
1954-07-17,8118.33
1954-07-18,8118.45
1954-07-19,8118.57
1954-07-20,8118.66
1954-07-21,8118.69
1954-07-22,8118.63
1954-07-23,8118.59
1954-07-24,8118.53
1954-07-25,8118.45
1954-07-26,8118.38
1954-07-27,8118.31
1954-07-28,8118.21
1954-07-29,8118.1
1954-07-30,8117.97
1954-07-31,8117.94
1954-08-01,8117.91
1954-08-02,8117.87
1954-08-03,8117.88
1954-08-04,8117.91
1954-08-05,8117.62
1954-08-06,8117.58
1954-08-07,8117.68
1954-08-08,8117.79
1954-08-09,8117.9
1954-08-10,8117.95
1954-08-11,8118.04
1954-08-12,8118.3
1954-08-13,8118.47
1954-08-14,8118.57
1954-08-15,8118.66
1954-08-16,8118.76
1954-08-17,8118.82
1954-08-18,8118.88
1954-08-19,8118.92
1954-08-20,8118.92
1954-08-21,8118.94
1954-08-22,8118.92
1954-08-23,8119.07
1954-08-24,8119.07
1954-08-25,8119.11
1954-08-26,8119.13
1954-08-27,8119.12
1954-08-28,8119.1
1954-08-29,8119.09
1954-08-30,8119.07
1954-08-31,8119.05
1954-09-01,8119.04
1954-09-02,8119.04
1954-09-03,8119.06
1954-09-04,8119.08
1954-09-05,8119.11
1954-09-06,8119.16
1954-09-07,8119.18
1954-09-08,8119.25
1954-09-09,8119.27
1954-09-10,8119.3
1954-09-11,8119.32
1954-09-12,8119.37
1954-09-13,8119.44
1954-09-14,8119.46
1954-09-15,8119.48
1954-09-16,8119.49
1954-09-17,8119.5
1954-09-18,8119.48
1954-09-19,8119.47
1954-09-20,8119.45
1954-09-21,8119.45
1954-09-22,8119.41
1954-09-23,8119.41
1954-09-24,8119.49
1954-09-25,8119.55
1954-09-26,8119.61
1954-09-27,8119.7
1954-09-28,8119.34
1954-09-29,8117.9
1954-09-30,8117.15
1954-10-01,8116.62
1954-10-02,8116.72
1954-10-03,8116.81
1954-10-04,8116.3
1954-10-05,8115.81
1954-10-06,8115.54
1954-10-07,8115.17
1954-10-08,8114.82
1954-10-09,8114.8
1954-10-10,8114.79
1954-10-11,8114.78
1954-10-12,8114.64
1954-10-13,8114.49
1954-10-14,8114.32
1954-10-15,8114.23
1954-10-16,8114.27
1954-10-17,8114.31
1954-10-18,8114.35
1954-10-19,8114.41
1954-10-20,8114.44
1954-10-21,8114.53
1954-10-22,8114.59
1954-10-23,8114.65
1954-10-24,8114.71
1954-10-25,8114.77
1954-10-26,8114.76
1954-10-27,8114.69
1954-10-28,8114.73
1954-10-29,8114.79
1954-10-30,8114.83
1954-10-31,8114.87
1954-11-01,8114.91
1954-11-02,8114.8
1954-11-03,8114.86
1954-11-04,8114.92
1954-11-05,8114.94
1954-11-06,8114.97
1954-11-07,8115.0
1954-11-08,8115.03
1954-11-09,8115.06
1954-11-10,8115.05
1954-11-11,8115.07
1954-11-12,8115.12
1954-11-13,8115.22
1954-11-14,8115.29
1954-11-15,8115.33
1954-11-16,8115.37
1954-11-17,8115.42
1954-11-18,8115.47
1954-11-19,8115.48
1954-11-20,8115.5
1954-11-21,8115.52
1954-11-22,8115.56
1954-11-23,8115.58
1954-11-24,8115.61
1954-11-25,8115.64
1954-11-26,8115.67
1954-11-27,8115.69
1954-11-28,8115.71
1954-11-29,8115.72
1954-11-30,8115.76
1954-12-01,8115.77
1954-12-02,8115.83
1954-12-03,8115.88
1954-12-04,8115.97
1954-12-05,8116.03
1954-12-06,8116.07
1954-12-07,8116.12
1954-12-08,8116.17
1954-12-09,8116.19
1954-12-10,8116.22
1954-12-11,8116.24
1954-12-12,8116.26
1954-12-13,8116.28
1954-12-14,8116.32
1954-12-15,8116.35
1954-12-16,8116.39
1954-12-17,8116.42
1954-12-18,8116.46
1954-12-19,8116.49
1954-12-20,8116.52
1954-12-21,8116.55
1954-12-22,8116.58
1954-12-23,8116.6
1954-12-24,8116.62
1954-12-25,8116.65
1954-12-26,8116.69
1954-12-27,8116.73
1954-12-28,8116.77
1954-12-29,8116.79
1954-12-30,8116.82
1954-12-31,8116.82
1955-01-01,8116.86
1955-01-02,8116.88
1955-01-03,8116.91
1955-01-04,8116.94
1955-01-05,8116.99
1955-01-06,8117.03
1955-01-07,8117.06
1955-01-08,8117.1
1955-01-09,8117.13
1955-01-10,8117.15
1955-01-11,8117.18
1955-01-12,8117.23
1955-01-13,8117.26
1955-01-14,8117.3
1955-01-15,8117.32
1955-01-16,8117.37
1955-01-17,8117.39
1955-01-18,8117.41
1955-01-19,8117.44
1955-01-20,8117.47
1955-01-21,8117.5
1955-01-22,8117.53
1955-01-23,8117.57
1955-01-24,8117.59
1955-01-25,8117.61
1955-01-26,8117.64
1955-01-27,8117.66
1955-01-28,8117.69
1955-01-29,8117.72
1955-01-30,8117.75
1955-01-31,8117.77
1955-02-01,8117.81
1955-02-02,8117.85
1955-02-03,8117.88
1955-02-04,8117.91
1955-02-05,8117.94
1955-02-06,8117.96
1955-02-07,8117.99
1955-02-08,8118.03
1955-02-09,8118.06
1955-02-10,8118.09
1955-02-11,8118.1
1955-02-12,8118.11
1955-02-13,8118.13
1955-02-14,8118.17
1955-02-15,8118.18
1955-02-16,8118.2
1955-02-17,8118.25
1955-02-18,8118.27
1955-02-19,8118.3
1955-02-20,8118.3
1955-02-21,8118.32
1955-02-22,8118.35
1955-02-23,8118.38
1955-02-24,8118.43
1955-02-25,8118.43
1955-02-26,8118.45
1955-02-27,8118.47
1955-02-28,8118.49
1955-03-01,8118.5
1955-03-02,8118.53
1955-03-03,8118.55
1955-03-04,8118.56
1955-03-05,8118.58
1955-03-06,8118.6
1955-03-07,8118.62
1955-03-08,8118.64
1955-03-09,8118.66
1955-03-10,8118.73
1955-03-11,8118.75
1955-03-12,8118.77
1955-03-13,8118.79
1955-03-14,8118.83
1955-03-15,8118.87
1955-03-16,8118.9
1955-03-17,8118.95
1955-03-18,8118.96
1955-03-19,8118.99
1955-03-20,8119.04
1955-03-21,8119.06
1955-03-22,8119.1
1955-03-23,8119.13
1955-03-24,8119.22
1955-03-25,8119.24
1955-03-26,8119.26
1955-03-27,8119.28
1955-03-28,8119.31
1955-03-29,8119.34
1955-03-30,8119.38
1955-03-31,8119.42
1955-04-01,8119.46
1955-04-02,8119.51
1955-04-03,8119.56
1955-04-04,8119.61
1955-04-05,8119.65
1955-04-06,8119.72
1955-04-07,8119.79
1955-04-08,8119.88
1955-04-09,8119.97
1955-04-10,8120.15
1955-04-11,8120.45
1955-04-12,8120.69
1955-04-13,8120.94
1955-04-14,8121.25
1955-04-15,8121.7
1955-04-16,8122.3
1955-04-17,8122.98
1955-04-18,8123.65
1955-04-19,8124.31
1955-04-20,8124.8
1955-04-21,8125.4
1955-04-22,8126.01
1955-04-23,8126.62
1955-04-24,8127.12
1955-04-25,8127.45
1955-04-26,8127.62
1955-04-27,8126.6
1955-04-28,8125.2
1955-04-29,8123.72
1955-04-30,8122.31
1955-05-01,8121.3
1955-05-02,8120.75
1955-05-03,8121.71
1955-05-04,8121.75
1955-05-05,8121.8
1955-05-06,8121.86
1955-05-07,8123.4
1955-05-08,8125.23
1955-05-09,8125.02
1955-05-10,8124.52
1955-05-11,8125.15
1955-05-12,8124.86
1955-05-13,8124.46
1955-05-14,8124.39
1955-05-15,8124.3
1955-05-16,8124.25
1955-05-17,8124.02
1955-05-18,8123.6
1955-05-19,8123.62
1955-05-20,8122.79
1955-05-21,8122.07
1955-05-22,8121.6
1955-05-23,8121.0
1955-05-24,8121.45
1955-05-25,8121.89
1955-05-26,8121.02
1955-05-27,8120.0
1955-05-28,8119.22
1955-05-29,8119.32
1955-05-30,8120.3
1955-05-31,8121.36
1955-06-01,8121.52
1955-06-02,8121.4
1955-06-03,8121.22
1955-06-04,8122.32
1955-06-05,8123.25
1955-06-06,8121.8
1955-06-07,8121.5
1955-06-08,8121.2
1955-06-09,8121.2
1955-06-10,8121.3
1955-06-11,8122.45
1955-06-12,8123.4
1955-06-13,8123.12
1955-06-14,8123.0
1955-06-15,8123.05
1955-06-16,8123.12
1955-06-17,8123.23
1955-06-18,8124.26
1955-06-19,8125.17
1955-06-20,8125.0
1955-06-21,8125.25
1955-06-22,8126.02
1955-06-23,8125.77
1955-06-24,8125.4
1955-06-25,8126.03
1955-06-26,8126.6
1955-06-27,8126.02
1955-06-28,8126.44
1955-06-29,8126.8
1955-06-30,8127.14
1955-07-01,8126.45
1955-07-02,8126.7
1955-07-03,8126.92
1955-07-04,8127.13
1955-07-05,8127.26
1955-07-06,8127.38
1955-07-07,8127.45
1955-07-08,8127.13
1955-07-09,8127.18
1955-07-10,8127.22
1955-07-11,8125.6
1955-07-12,8124.02
1955-07-13,8122.87
1955-07-14,8121.75
1955-07-15,8120.43
1955-07-16,8120.45
1955-07-17,8119.55
1955-07-18,8118.6
1955-07-19,8117.6
1955-07-20,8116.43
1955-07-21,8115.68
1955-07-22,8115.33
1955-07-23,8115.33
1955-07-24,8115.33
1955-07-25,8115.31
1955-07-26,8115.5
1955-07-27,8115.69
1955-07-28,8115.87
1955-07-29,8115.92
1955-07-30,8115.92
1955-07-31,8115.89
1955-08-01,8115.91
1955-08-02,8116.04
1955-08-03,8116.15
1955-08-04,8116.4
1955-08-05,8116.64
1955-08-06,8116.9
1955-08-07,8117.19
1955-08-08,8117.39
1955-08-09,8117.57
1955-08-10,8117.71
1955-08-11,8117.85
1955-08-12,8117.99
1955-08-13,8118.12
1955-08-14,8118.3
1955-08-15,8118.51
1955-08-16,8118.65
1955-08-17,8118.82
1955-08-18,8119.02
1955-08-19,8119.18
1955-08-20,8119.32
1955-08-21,8119.43
1955-08-22,8119.51
1955-08-23,8119.61
1955-08-24,8119.69
1955-08-25,8119.8
1955-08-26,8119.9
1955-08-27,8120.06
1955-08-28,8120.25
1955-08-29,8120.35
1955-08-30,8120.43
1955-08-31,8120.5
1955-09-01,8120.55
1955-09-02,8120.6
1955-09-03,8120.62
1955-09-04,8120.65
1955-09-05,8120.68
1955-09-06,8120.71
1955-09-07,8120.75
1955-09-08,8120.77
1955-09-09,8120.82
1955-09-10,8120.83
1955-09-11,8120.84
1955-09-12,8120.85
1955-09-13,8120.86
1955-09-14,8120.88
1955-09-15,8120.87
1955-09-16,8120.88
1955-09-17,8120.88
1955-09-18,8120.89
1955-09-19,8120.91
1955-09-20,8121.01
1955-09-21,8121.08
1955-09-22,8121.11
1955-09-23,8121.14
1955-09-24,8121.16
1955-09-25,8121.25
1955-09-26,8121.32
1955-09-27,8121.33
1955-09-28,8121.35
1955-09-29,8121.36
1955-09-30,8121.36
1955-10-01,8121.36
1955-10-02,8121.36
1955-10-03,8121.35
1955-10-04,8121.37
1955-10-05,8121.45
1955-10-06,8121.51
1955-10-07,8121.56
1955-10-08,8121.6
1955-10-09,8121.64
1955-10-10,8121.68
1955-10-11,8121.73
1955-10-12,8121.77
1955-10-13,8121.8
1955-10-14,8121.83
1955-10-15,8121.85
1955-10-16,8121.87
1955-10-17,8121.91
1955-10-18,8121.95
1955-10-19,8121.97
1955-10-20,8122.0
1955-10-21,8122.02
1955-10-22,8122.06
1955-10-23,8122.12
1955-10-24,8122.14
1955-10-25,8122.16
1955-10-26,8122.18
1955-10-27,8122.24
1955-10-28,8122.3
1955-10-29,8122.34
1955-10-30,8122.4
1955-10-31,8122.45
1955-11-01,8122.49
1955-11-02,8122.5
1955-11-03,8122.5
1955-11-04,8122.55
1955-11-05,8122.59
1955-11-06,8122.63
1955-11-07,8122.66
1955-11-08,8122.67
1955-11-09,8122.71
1955-11-10,8122.8
1955-11-11,8122.9
1955-11-12,8122.96
1955-11-13,8123.08
1955-11-14,8123.13
1955-11-15,8123.18
1955-11-16,8123.17
1955-11-17,8123.23
1955-11-18,8123.3
1955-11-19,8123.37
1955-11-20,8123.44
1955-11-21,8123.5
1955-11-22,8123.57
1955-11-23,8123.61
1955-11-24,8123.65
1955-11-25,8123.68
1955-11-26,8123.71
1955-11-27,8123.78
1955-11-28,8123.81
1955-11-29,8123.86
1955-11-30,8123.9
1955-12-01,8123.96
1955-12-02,8123.99
1955-12-03,8123.91
1955-12-04,8123.85
1955-12-05,8122.2
1955-12-06,8118.65
1955-12-07,8116.4
1955-12-08,8115.53
1955-12-09,8115.23
1955-12-10,8115.31
1955-12-11,8115.38
1955-12-12,8115.45
1955-12-13,8115.53
1955-12-14,8115.58
1955-12-15,8115.63
1955-12-16,8115.71
1955-12-17,8115.8
1955-12-18,8115.85
1955-12-19,8115.9
1955-12-20,8115.96
1955-12-21,8116.03
1955-12-22,8116.1
1955-12-23,8116.16
1955-12-24,8116.25
1955-12-25,8116.35
1955-12-26,8116.42
1955-12-27,8116.5
1955-12-28,8116.59
1955-12-29,8116.65
1955-12-30,8116.7
1955-12-31,8116.77
1956-01-01,8116.83
1956-01-02,8116.88
1956-01-03,8116.93
1956-01-04,8116.96
1956-01-05,8117.01
1956-01-06,8117.05
1956-01-07,8117.09
1956-01-08,8117.13
1956-01-09,8117.18
1956-01-10,8117.21
1956-01-11,8117.24
1956-01-12,8117.27
1956-01-13,8117.31
1956-01-14,8117.36
1956-01-15,8117.41
1956-01-16,8117.5
1956-01-17,8117.55
1956-01-18,8117.6
1956-01-19,8117.67
1956-01-20,8117.73
1956-01-21,8117.79
1956-01-22,8117.8
1956-01-23,8117.94
1956-01-24,8117.99
1956-01-25,8118.06
1956-01-26,8118.12
1956-01-27,8118.2
1956-01-28,8118.25
1956-01-29,8118.3
1956-01-30,8118.31
1956-01-31,8118.4
1956-02-01,8118.45
1956-02-02,8118.48
1956-02-03,8118.52
1956-02-04,8118.56
1956-02-05,8118.6
1956-02-06,8118.64
1956-02-07,8118.7
1956-02-08,8118.75
1956-02-09,8118.8
1956-02-10,8118.84
1956-02-11,8118.88
1956-02-12,8118.94
1956-02-13,8119.0
1956-02-14,8119.06
1956-02-15,8119.11
1956-02-16,8119.16
1956-02-17,8119.2
1956-02-18,8119.26
1956-02-19,8119.3
1956-02-20,8119.35
1956-02-21,8119.38
1956-02-22,8119.41
1956-02-23,8119.45
1956-02-24,8119.52
1956-02-25,8119.56
1956-02-26,8119.61
1956-02-27,8119.65
1956-02-28,8119.67
1956-02-29,8119.71
1956-03-01,8119.75
1956-03-02,8119.78
1956-03-03,8119.81
1956-03-04,8119.85
1956-03-05,8119.87
1956-03-06,8119.9
1956-03-07,8119.93
1956-03-08,8119.96
1956-03-09,8120.01
1956-03-10,8120.04
1956-03-11,8120.1
1956-03-12,8120.13
1956-03-13,8120.16
1956-03-14,8120.21
1956-03-15,8120.25
1956-03-16,8120.29
1956-03-17,8120.32
1956-03-18,8120.36
1956-03-19,8120.4
1956-03-20,8120.43
1956-03-21,8120.47
1956-03-22,8120.52
1956-03-23,8120.57
1956-03-24,8120.62
1956-03-25,8120.69
1956-03-26,8120.78
1956-03-27,8120.78
1956-03-28,8120.85
1956-03-29,8120.86
1956-03-30,8120.82
1956-03-31,8120.94
1956-04-01,8121.11
1956-04-02,8121.2
1956-04-03,8121.28
1956-04-04,8121.38
1956-04-05,8120.05
1956-04-06,8119.24
1956-04-07,8119.49
1956-04-08,8119.75
1956-04-09,8118.72
1956-04-10,8117.96
1956-04-11,8117.57
1956-04-12,8117.27
1956-04-13,8117.16
1956-04-14,8117.7
1956-04-15,8118.18
1956-04-16,8118.08
1956-04-17,8118.03
1956-04-18,8117.9
1956-04-19,8117.86
1956-04-20,8117.96
1956-04-21,8119.0
1956-04-22,8120.18
1956-04-23,8120.15
1956-04-24,8119.01
1956-04-25,8117.78
1956-04-26,8117.29
1956-04-27,8117.41
1956-04-28,8117.2
1956-04-29,8117.2
1956-04-30,8117.24
1956-05-01,8117.78
1956-05-02,8118.3
1956-05-03,8118.6
1956-05-04,8118.5
1956-05-05,8119.16
1956-05-06,8119.55
1956-05-07,8120.12
1956-05-08,8121.42
1956-05-09,8122.9
1956-05-10,8124.27
1956-05-11,8124.82
1956-05-12,8125.15
1956-05-13,8125.7
1956-05-14,8125.86
1956-05-15,8125.41
1956-05-16,8124.55
1956-05-17,8124.15
1956-05-18,8124.15
1956-05-19,8125.31
1956-05-20,8126.95
1956-05-21,8128.71
1956-05-22,8129.52
1956-05-23,8129.53
1956-05-24,8129.53
1956-05-25,8129.59
1956-05-26,8129.54
1956-05-27,8129.56
1956-05-28,8129.62
1956-05-29,8129.75
1956-05-30,8129.76
1956-05-31,8129.79
1956-06-01,8129.68
1956-06-02,8129.7
1956-06-03,8129.61
1956-06-04,8129.63
1956-06-05,8129.54
1956-06-06,8129.31
1956-06-07,8128.7
1956-06-08,8127.75
1956-06-09,8126.53
1956-06-10,8126.12
1956-06-11,8125.56
1956-06-12,8124.9
1956-06-13,8124.7
1956-06-14,8124.91
1956-06-15,8126.0
1956-06-16,8127.0
1956-06-17,8127.85
1956-06-18,8128.58
1956-06-19,8127.48
1956-06-20,8128.09
1956-06-21,8126.77
1956-06-22,8127.22
1956-06-23,8127.61
1956-06-24,8127.95
1956-06-25,8128.23
1956-06-26,8126.6
1956-06-27,8125.92
1956-06-28,8125.23
1956-06-29,8124.38
1956-06-30,8124.6
1956-07-01,8124.82
1956-07-02,8124.62
1956-07-03,8124.74
1956-07-04,8124.81
1956-07-05,8124.85
1956-07-06,8124.86
1956-07-07,8124.86
1956-07-08,8124.83
1956-07-09,8124.78
1956-07-10,8124.73
1956-07-11,8124.8
1956-07-12,8124.85
1956-07-13,8124.9
1956-07-14,8124.96
1956-07-15,8125.02
1956-07-16,8125.04
1956-07-17,8125.01
1956-07-18,8124.96
1956-07-19,8124.91
1956-07-20,8124.86
1956-07-21,8124.78
1956-07-22,8124.76
1956-07-23,8124.8
1956-07-24,8124.78
1956-07-25,8124.8
1956-07-26,8124.8
1956-07-27,8124.81
1956-07-28,8124.81
1956-07-29,8124.81
1956-07-30,8124.85
1956-07-31,8124.99
1956-08-01,8125.16
1956-08-02,8125.26
1956-08-03,8125.31
1956-08-04,8125.32
1956-08-05,8125.31
1956-08-06,8125.26
1956-08-07,8125.08
1956-08-08,8124.6
1956-08-09,8124.53
1956-08-10,8124.46
1956-08-11,8124.46
1956-08-12,8124.47
1956-08-13,8124.5
1956-08-14,8124.51
1956-08-15,8124.37
1956-08-16,8124.42
1956-08-17,8124.54
1956-08-18,8124.63
1956-08-19,8124.7
1956-08-20,8124.48
1956-08-21,8124.01
1956-08-22,8123.66
1956-08-23,8123.24
1956-08-24,8122.7
1956-08-25,8122.72
1956-08-26,8122.74
1956-08-27,8122.25
1956-08-28,8121.75
1956-08-29,8121.28
1956-08-30,8121.32
1956-08-31,8121.36
1956-09-01,8121.41
1956-09-02,8121.44
1956-09-03,8121.48
1956-09-04,8121.5
1956-09-05,8121.52
1956-09-06,8121.54
1956-09-07,8121.55
1956-09-08,8121.55
1956-09-09,8121.56
1956-09-10,8121.57
1956-09-11,8121.54
1956-09-12,8121.52
1956-09-13,8121.51
1956-09-14,8121.5
1956-09-15,8121.5
1956-09-16,8121.5
1956-09-17,8121.49
1956-09-18,8121.53
1956-09-19,8121.56
1956-09-20,8121.59
1956-09-21,8121.57
1956-09-22,8121.57
1956-09-23,8121.55
1956-09-24,8121.5
1956-09-25,8121.51
1956-09-26,8121.52
1956-09-27,8121.55
1956-09-28,8121.56
1956-09-29,8121.6
1956-09-30,8121.62
1956-10-01,8121.65
1956-10-02,8121.67
1956-10-03,8121.68
1956-10-04,8121.69
1956-10-05,8121.7
1956-10-06,8121.7
1956-10-07,8121.71
1956-10-08,8121.72
1956-10-09,8121.73
1956-10-10,8121.73
1956-10-11,8121.44
1956-10-12,8121.41
1956-10-13,8121.44
1956-10-14,8121.45
1956-10-15,8121.38
1956-10-16,8121.35
1956-10-17,8121.36
1956-10-18,8121.37
1956-10-19,8121.4
1956-10-20,8121.42
1956-10-21,8121.44
1956-10-22,8121.45
1956-10-23,8121.47
1956-10-24,8121.55
1956-10-25,8121.6
1956-10-26,8121.61
1956-10-27,8121.59
1956-10-28,8121.58
1956-10-29,8121.51
1956-10-30,8121.46
1956-10-31,8121.46
1956-11-01,8121.49
1956-11-02,8121.52
1956-11-03,8121.58
1956-11-04,8121.61
1956-11-05,8121.56
1956-11-06,8121.21
1956-11-07,8120.17
1956-11-08,8119.07
1956-11-09,8118.42
1956-11-10,8118.5
1956-11-11,8118.57
1956-11-12,8118.62
1956-11-13,8118.04
1956-11-14,8117.39
1956-11-15,8116.22
1956-11-16,8115.6
1956-11-17,8115.68
1956-11-18,8115.76
1956-11-19,8115.81
1956-11-20,8115.85
1956-11-21,8115.88
1956-11-22,8115.93
1956-11-23,8115.97
1956-11-24,8116.01
1956-11-25,8116.04
1956-11-26,8116.08
1956-11-27,8116.09
1956-11-28,8116.13
1956-11-29,8116.16
1956-11-30,8116.19
1956-12-01,8116.22
1956-12-02,8116.25
1956-12-03,8116.27
1956-12-04,8116.3
1956-12-05,8116.32
1956-12-06,8116.36
1956-12-07,8116.42
1956-12-08,8116.46
1956-12-09,8116.51
1956-12-10,8116.55
1956-12-11,8116.63
1956-12-12,8116.67
1956-12-13,8116.73
1956-12-14,8116.82
1956-12-15,8116.88
1956-12-16,8116.93
1956-12-17,8116.98
1956-12-18,8117.03
1956-12-19,8117.1
1956-12-20,8117.14
1956-12-21,8117.18
1956-12-22,8117.25
1956-12-23,8117.3
1956-12-24,8117.33
1956-12-25,8117.38
1956-12-26,8117.42
1956-12-27,8117.47
1956-12-28,8117.51
1956-12-29,8117.56
1956-12-30,8117.6
1956-12-31,8117.63
1957-01-01,8117.67
1957-01-02,8117.72
1957-01-03,8117.76
1957-01-04,8117.81
1957-01-05,8117.87
1957-01-06,8117.92
1957-01-07,8117.97
1957-01-08,8118.05
1957-01-09,8118.09
1957-01-10,8118.12
1957-01-11,8118.16
1957-01-12,8118.21
1957-01-13,8118.31
1957-01-14,8118.36
1957-01-15,8118.41
1957-01-16,8118.47
1957-01-17,8118.51
1957-01-18,8118.55
1957-01-19,8118.59
1957-01-20,8118.63
1957-01-21,8118.67
1957-01-22,8118.72
1957-01-23,8118.76
1957-01-24,8118.82
1957-01-25,8118.87
1957-01-26,8118.93
1957-01-27,8119.0
1957-01-28,8119.05
1957-01-29,8119.1
1957-01-30,8119.13
1957-01-31,8119.19
1957-02-01,8119.22
1957-02-02,8119.26
1957-02-03,8119.31
1957-02-04,8119.35
1957-02-05,8119.38
1957-02-06,8119.41
1957-02-07,8119.45
1957-02-08,8119.51
1957-02-09,8119.57
1957-02-10,8119.61
1957-02-11,8119.64
1957-02-12,8119.68
1957-02-13,8119.72
1957-02-14,8119.76
1957-02-15,8119.8
1957-02-16,8119.83
1957-02-17,8119.86
1957-02-18,8119.9
1957-02-19,8119.94
1957-02-20,8119.98
1957-02-21,8120.05
1957-02-22,8120.1
1957-02-23,8120.13
1957-02-24,8120.17
1957-02-25,8120.22
1957-02-26,8120.27
1957-02-27,8120.32
1957-02-28,8120.38
1957-03-01,8120.41
1957-03-02,8120.43
1957-03-03,8120.49
1957-03-04,8120.53
1957-03-05,8120.6
1957-03-06,8120.63
1957-03-07,8120.67
1957-03-08,8120.72
1957-03-09,8120.77
1957-03-10,8120.85
1957-03-11,8120.85
1957-03-12,8120.9
1957-03-13,8120.97
1957-03-14,8121.0
1957-03-15,8121.05
1957-03-16,8121.09
1957-03-17,8121.14
1957-03-18,8121.18
1957-03-19,8121.23
1957-03-20,8121.28
1957-03-21,8121.36
1957-03-22,8121.43
1957-03-23,8121.48
1957-03-24,8121.53
1957-03-25,8121.58
1957-03-26,8121.65